This demonstration page uses our WeatherBlox Daily Observations layout. Learn more.

Left ArrowRight Arrow

Hourly Observations for September 28, 2020

Temp ( °F °C ) Dew Point ( °F °C ) Humidity (%) Winds ( mph kmh ) Pressure ( in mb ) Visibility ( mi km ) Precip ( " mm )
12:51 am 00:51 Clear 72 22.2 32 0 23 23 WNW 8 13 29.78 1009 10 16.0934 0 0
1:51 am 01:51 Clear 70 21.1 32 0 25 25 WNW 7 11 29.79 1009 10 16.0934 0 0
2:51 am 02:51 Clear 64 17.8 32 0 30 30 Calm 29.8 1009 10 16.0934 0 0
3:51 am 03:51 Clear 64 17.8 30 -1.1 28 28 SE 5 7 29.82 1010 10 16.0934 0 0
4:51 am 04:51 Clear 62 16.7 30 -1.1 30 30 ESE 5 7 29.85 1011 10 16.0934 0 0
5:51 am 05:51 Clear 60 15.6 30 -1.1 32 32 ESE 3 6 29.88 1012 10 16.0934 0 0
6:51 am 06:51 Sunny 62 16.7 31 -0.6 31 31 SSE 12 19 29.93 1014 10 16.0934 0 0
7:51 am 07:51 Sunny 73 22.8 37 2.8 27 27 SSE 15 24 29.96 1015 10 16.0934 0 0
8:08 am 08:08 Mostly Cloudy 73 22.8 39 3.9 29 29 SSE 12 19 29.97 1015 10 16.0934 0 0
8:51 am 08:51 Cloudy 76 24.4 41 5 29 29 S 12 19 29.99 1016 8 12.87472 0 0
9:00 am 09:00 Cloudy 77 25 40 4.4 26 26 SSE 10 17 29.96 1015 8 12.87472 0 0
9:51 am 09:51 Cloudy with Haze 79 26.1 39 3.9 24 24 ESE 9 15 30 1016 5 8.0467 0 0
10:46 am 10:46 Cloudy with Haze 81 27 37 3 21 21 SE 15 24 29.95 1014 4 6.43736 0 0
10:51 am 10:51 Cloudy with Haze 81 27.2 38 3.3 21 21 SE 13 20 30.01 1016 4 6.43736 0 0
11:51 am 11:51 Cloudy 83 28.3 37 2.8 19 19 SE 9 15 30 1016 9 14.48406 0 0
12:06 pm 12:06 Cloudy 83 28.3 37 2.8 19 19 SE 12 19 29.93 1013 10 16.0934 0 0
12:51 pm 12:51 Cloudy 85 29.4 36 2.2 17 17 ESE 16 26 29.98 1015 10 16.0934 0 0
1:51 pm 13:51 Cloudy 85 29.4 36 2.2 17 17 SE 9 15 29.96 1014 10 16.0934 0 0
2:51 pm 14:51 Cloudy 87 30.6 36 2.2 16 16 SE 16 26 29.95 1014 10 16.0934 0 0
3:51 pm 15:51 Cloudy 86 30 36 2.2 17 17 ESE 10 17 29.94 1014 10 16.0934 0 0
4:28 pm 16:28 Partly Cloudy 86 30 36 2.2 17 17 SE 10 17 29.83 1010 10 16.0934 0 0
4:51 pm 16:51 Partly Cloudy 85 29.4 36 2.2 17 17 SE 9 15 29.93 1014 10 16.0934 0 0
5:03 pm 17:03 Mostly Cloudy 85 29.4 36 2.2 17 17 SE 10 17 29.84 1010 10 16.0934 0 0
5:51 pm 17:51 Mostly Cloudy 83 28.3 36 2.2 19 19 ESE 12 19 29.96 1014 10 16.0934 0 0
6:17 pm 18:17 Partly Cloudy 81 27.2 36 2.2 20 20 SE 14 22 29.88 1012 10 16.0934 0 0
6:51 pm 18:51 Clear 79 26.1 36 2.2 21 21 ESE 10 17 29.98 1015 10 16.0934 0 0
7:51 pm 19:51 Partly Cloudy 76 24.4 36 2.2 23 23 E 10 17 30 1016 10 16.0934 0 0
8:51 pm 20:51 Clear 75 23.9 36 2.2 24 24 ESE 8 13 30.02 1017 10 16.0934 0 0
9:51 pm 21:51 Clear 73 22.8 35 1.7 25 25 ESE 9 15 30.04 1017 10 16.0934 0 0
10:51 pm 22:51 Clear 72 22.2 35 1.7 26 26 E 9 15 30.06 1018 10 16.0934 0 0
11:51 pm 23:51 Clear 70 21.1 34 1.1 27 27 E 9 15 30.07 1018 10 16.0934 0 0

Powered by AerisWeather